Home   Weather   Novorossiysk   Past weeks

Flag for Russia Past Weather in Novorossiysk, Russia — Yesterday and Last 2 Weeks

Now
57 °F

Clear.


Feels Like: 53 °F
Forecast: 45 / 60 °F
Wind: 17 mph from Southeast

Location: Anapa / Vitiazevo

Current Time: Mar 1, 2017 at 11:11:00 pm

Latest Report: Mar 1, 2017 at 10:30 pm


Visibility: N/A

Pressure: 29.86 "Hg

Humidity: 44%

Dew Point: 36 °F

Location of NovorossiyskLocation

Past Weather in Novorossiysk — Graph

°F

Novorossiysk Temperature Yesterday

Maximum temperature yesterday: 55 °F (at 1:30 pm)
Minimum temperature yesterday: 28 °F (at 2:30 am)
Average temperature yesterday: 41 °F

High & Low Weather Summary for the Past Weeks

 TemperatureHumidityPressure
High68 °F (Mar 1, 11:30 am)100% (Feb 14, 10:30 pm)30.45 "Hg (Feb 14, 10:30 pm)
Low10 °F (Feb 17, 12:30 am)28% (Mar 1, 1:00 pm)29.74 "Hg (Feb 22, 12:00 pm)
Average39 °F80%30.11 "Hg
* Reported Feb 14 9:00 pm — Mar 1 9:30 pm, Novorossiysk, Weather by CustomWeather, © 2017

Note: Actual official high and low records may vary slightly from our data, if they occured in-between our weather recording intervals... More about our weather records

Advertising

Novorossiysk Weather History for the Previous 24 Hours

Scroll right to see more
 ConditionsComfort  
Time TempWeatherWind HumidityBarometerVisibility
9:30 pm
Wed, Mar 1
57 °FClear.17 mph44%29.89 "HgN/A
9:00 pm57 °FClear.15 mph44%29.89 "HgN/A
8:30 pm57 °FClear.17 mph44%29.89 "HgN/A
8:00 pm55 °FClear.17 mph47%29.89 "HgN/A
7:30 pm57 °FPassing clouds.13 mph44%29.89 "HgN/A
6:30 pm57 °FClear.15 mph44%29.89 "Hg10 mi
6:00 pm57 °FPassing clouds.13 mph44%29.89 "HgN/A
5:30 pm59 °FPassing clouds.15 mph42%29.89 "HgN/A
5:00 pm61 °FSunny.17 mph42%29.92 "Hg10 mi
4:30 pm61 °FSunny.15 mph42%29.92 "Hg10 mi
4:00 pm63 °FSunny.17 mph39%29.92 "Hg10 mi
3:30 pm64 °FPassing clouds.20 mph37%29.92 "HgN/A
2:30 pm66 °FSunny.24 mph32%29.92 "Hg10 mi
2:00 pm66 °FPassing clouds.22 mph32%29.95 "HgN/A
1:30 pm66 °FSunny.22 mph32%29.95 "Hg10 mi
1:00 pm68 °FPassing clouds.22 mph28%29.95 "HgN/A
12:30 pm68 °FPassing clouds.22 mph30%29.98 "HgN/A
12:00 pm68 °FPassing clouds.17 mph33%29.98 "HgN/A
11:30 am68 °FSunny.15 mph35%29.98 "Hg10 mi
11:00 am66 °FSunny.13 mph40%30.01 "Hg10 mi
10:30 am64 °FSunny.8 mph46%30.01 "Hg10 mi
10:00 am63 °FSunny.8 mph52%30.01 "Hg10 mi
9:30 am59 °FSunny.6 mph63%30.01 "Hg10 mi
9:00 am54 °FSunny.3 mph77%30.04 "Hg10 mi
8:30 am50 °FSunny.6 mph82%30.04 "Hg10 mi
8:00 am43 °FSunny.6 mph87%30.04 "Hg10 mi
7:30 am43 °FSunny.8 mph81%30.04 "HgN/A
7:00 am39 °FClear.10 mph87%30.04 "HgN/A
6:30 am39 °FClear.8 mph87%30.04 "HgN/A
6:00 am39 °FClear.6 mph87%30.04 "HgN/A
5:30 am37 °FClear.8 mph93%30.04 "HgN/A
5:00 am36 °FClear.8 mph93%30.04 "HgN/A
4:30 am36 °FClear.6 mph93%30.07 "HgN/A
4:00 am36 °FClear.6 mph93%30.07 "HgN/A
3:30 am37 °FClear.3 mph93%30.07 "HgN/A
3:00 am36 °FClear.6 mph93%30.07 "HgN/A
2:30 am37 °FClear.3 mph87%30.07 "HgN/A
2:00 am37 °FClear.3 mph93%30.07 "HgN/A
1:30 am36 °FClear.1 mph87%30.07 "HgN/A
1:00 am36 °FClear.3 mph93%30.07 "HgN/A
12:30 am37 °FClear.1 mph87%30.07 "HgN/A
12:00 am37 °FClear.1 mph87%30.09 "HgN/A
11:30 pm
Tue, Feb 28
36 °FClear.3 mph87%30.09 "HgN/A
11:00 pm34 °FClear.6 mph93%30.09 "HgN/A
Weather by CustomWeather, © 2017

See weather overviewHow to use our weather pages